Location: Cronhütte
(48.9135°N, 9.6869°E)
Time: 20:47:39
(UTC+00:00)

Cosmos 2333 - Pass Details

Date: 23 May 2024
Orbit: 828 x 866 km, 70.9° (Epoch: 23 June)

Event Time Altitude Azimuth Distance (km) Brightness Sun altitude
Rises 01:42:34 0° 332° (NNW) 3,424 7.7 -13.4°
Reaches altitude 10° 01:45:01 10° 334° (NNW) 2,490 7.0 -13.1°
Maximum altitude 01:50:45 75° 60° (ENE) 890 4.5 -12.6°
Drops below altitude 10° 01:56:30 10° 146° (SSE) 2,496 6.5 -12.0°
Sets 01:58:58 0° 148° (SSE) 3,432 7.2 -11.8°
